TimeCST,TemperatureF,Dew PointF,Humidity,Sea Level PressureIn,VisibilityMPH,Wind Direction,Wind SpeedMPH,Gust SpeedMPH,PrecipitationIn,Events,Conditions,WindDirDegrees,DateUTC
12:20 AM,5.0,5.0,100,29.85,10.0,East,8.1,-,N/A,,Clear,80,2013-02-24 06:20:00
12:35 AM,5.0,5.0,100,29.85,10.0,ENE,8.1,-,N/A,,Clear,70,2013-02-24 06:35:00
1:00 AM,8.6,8.6,100,29.86,10.0,ENE,4.6,-,N/A,,Scattered Clouds,70,2013-02-24 07:00:00
1:15 AM,8.6,8.6,100,29.86,10.0,ENE,6.9,-,N/A,,Scattered Clouds,60,2013-02-24 07:15:00
1:40 AM,6.8,6.8,100,29.87,10.0,ENE,8.1,-,N/A,,Scattered Clouds,60,2013-02-24 07:40:00
1:55 AM,6.8,6.8,100,29.87,10.0,ENE,8.1,-,N/A,,Mostly Cloudy,60,2013-02-24 07:55:00
2:20 AM,6.8,6.8,100,29.87,10.0,ENE,4.6,-,N/A,,Partly Cloudy,70,2013-02-24 08:20:00
2:35 AM,6.8,6.8,100,29.88,10.0,East,4.6,-,N/A,,Clear,80,2013-02-24 08:35:00
3:00 AM,6.8,6.8,100,29.88,10.0,East,5.8,-,N/A,,Scattered Clouds,90,2013-02-24 09:00:00
3:15 AM,6.8,6.8,100,29.88,10.0,East,4.6,-,N/A,,Scattered Clouds,80,2013-02-24 09:15:00
3:40 AM,8.6,8.6,100,29.88,10.0,East,3.5,-,N/A,,Mostly Cloudy,100,2013-02-24 09:40:00
3:55 AM,8.6,8.6,100,29.88,10.0,East,5.8,-,N/A,,Mostly Cloudy,80,2013-02-24 09:55:00
4:15 AM,8.6,8.6,100,29.88,10.0,ENE,4.6,-,N/A,,Overcast,60,2013-02-24 10:15:00
4:40 AM,10.4,10.4,100,29.88,10.0,ENE,6.9,-,N/A,,Overcast,60,2013-02-24 10:40:00
4:55 AM,10.4,10.4,100,29.88,10.0,ENE,6.9,-,N/A,,Overcast,60,2013-02-24 10:55:00
5:15 AM,10.4,10.4,100,29.89,10.0,NE,5.8,-,N/A,,Overcast,50,2013-02-24 11:15:00
5:35 AM,10.4,10.4,100,29.90,10.0,NE,6.9,-,N/A,,Overcast,40,2013-02-24 11:35:00
5:55 AM,10.4,10.4,100,29.91,10.0,NE,5.8,-,N/A,,Overcast,40,2013-02-24 11:55:00
6:20 AM,10.4,10.4,100,29.91,10.0,ENE,5.8,-,N/A,,Overcast,60,2013-02-24 12:20:00
6:35 AM,12.2,12.2,100,29.91,10.0,ENE,6.9,-,N/A,,Overcast,60,2013-02-24 12:35:00
7:00 AM,12.2,12.2,100,29.92,10.0,ENE,6.9,-,N/A,,Scattered Clouds,60,2013-02-24 13:00:00
7:15 AM,14.0,14.0,100,29.92,10.0,NE,5.8,-,N/A,,Partly Cloudy,50,2013-02-24 13:15:00
7:40 AM,14.0,14.0,100,29.93,10.0,ENE,5.8,-,N/A,,Clear,60,2013-02-24 13:40:00
7:55 AM,14.0,14.0,100,29.93,10.0,ENE,8.1,-,N/A,,Clear,60,2013-02-24 13:55:00
8:20 AM,14.0,14.0,100,29.94,10.0,ENE,6.9,-,N/A,,Clear,70,2013-02-24 14:20:00
8:35 AM,14.0,14.0,100,29.95,10.0,ENE,5.8,-,N/A,,Clear,60,2013-02-24 14:35:00
9:00 AM,15.8,15.8,100,29.95,10.0,ENE,6.9,-,N/A,,Clear,60,2013-02-24 15:00:00
9:15 AM,15.8,15.8,100,29.96,10.0,NE,4.6,-,N/A,,Clear,50,2013-02-24 15:15:00
9:40 AM,15.8,15.8,100,29.97,10.0,Calm,Calm,-,N/A,,Clear,0,2013-02-24 15:40:00
10:00 AM,17.6,17.6,100,29.98,10.0,NE,3.5,-,N/A,,Clear,40,2013-02-24 16:00:00
10:15 AM,19.4,19.4,100,29.98,10.0,ENE,4.6,-,N/A,,Clear,70,2013-02-24 16:15:00
10:40 AM,19.4,19.4,100,29.98,10.0,NE,5.8,-,N/A,,Clear,50,2013-02-24 16:40:00
10:55 AM,21.2,21.2,100,29.98,10.0,NE,8.1,-,N/A,,Clear,50,2013-02-24 16:55:00
11:20 AM,21.2,21.2,100,29.98,10.0,ENE,5.8,-,N/A,,Clear,70,2013-02-24 17:20:00
11:35 AM,23.0,23.0,100,29.99,10.0,East,5.8,-,N/A,,Clear,80,2013-02-24 17:35:00
12:00 PM,23.0,23.0,100,30.00,10.0,East,5.8,-,N/A,,Clear,100,2013-02-24 18:00:00
12:15 PM,23.0,23.0,100,29.99,10.0,East,4.6,-,N/A,,Clear,100,2013-02-24 18:15:00
12:40 PM,24.8,24.8,100,29.99,10.0,ENE,3.5,-,N/A,,Clear,70,2013-02-24 18:40:00
12:55 PM,24.8,24.8,100,29.99,10.0,East,3.5,-,N/A,,Clear,80,2013-02-24 18:55:00
1:20 PM,24.8,24.8,100,29.98,10.0,ENE,3.5,-,N/A,,Clear,70,2013-02-24 19:20:00
1:35 PM,24.8,24.8,100,29.97,10.0,ENE,3.5,-,N/A,,Clear,70,2013-02-24 19:35:00
2:00 PM,24.8,24.8,100,29.97,10.0,NE,3.5,-,N/A,,Clear,40,2013-02-24 20:00:00
2:15 PM,26.6,26.6,100,29.96,10.0,ENE,3.5,-,N/A,,Clear,60,2013-02-24 20:15:00
2:35 PM,26.6,26.6,100,29.97,10.0,Calm,Calm,-,N/A,,Clear,0,2013-02-24 20:35:00
3:00 PM,26.6,26.6,100,29.96,10.0,NNE,4.6,-,N/A,,Clear,30,2013-02-24 21:00:00
3:15 PM,26.6,26.6,100,29.97,10.0,NNE,3.5,-,N/A,,Clear,20,2013-02-24 21:15:00
3:40 PM,26.6,26.6,100,29.97,10.0,North,5.8,-,N/A,,Clear,360,2013-02-24 21:40:00
3:55 PM,26.6,26.6,100,29.97,10.0,North,5.8,-,N/A,,Clear,10,2013-02-24 21:55:00
4:15 PM,24.8,24.8,100,29.97,10.0,North,5.8,-,N/A,,Clear,350,2013-02-24 22:15:00
4:40 PM,24.8,24.8,100,29.97,10.0,North,5.8,-,N/A,,Clear,350,2013-02-24 22:40:00
4:55 PM,24.8,24.8,100,29.98,10.0,North,3.5,-,N/A,,Clear,10,2013-02-24 22:55:00
5:20 PM,23.0,23.0,100,29.99,10.0,North,3.5,-,N/A,,Clear,360,2013-02-24 23:20:00
5:35 PM,23.0,23.0,100,29.99,10.0,North,4.6,-,N/A,,Clear,10,2013-02-24 23:35:00
6:00 PM,19.4,19.4,100,30.00,10.0,Calm,Calm,-,N/A,,Clear,0,2013-02-25 00:00:00
6:15 PM,21.2,21.2,100,29.99,10.0,East,4.6,-,N/A,,Clear,90,2013-02-25 00:15:00
6:40 PM,19.4,19.4,100,30.00,10.0,Calm,Calm,-,N/A,,Clear,0,2013-02-25 00:40:00
6:55 PM,17.6,17.6,100,30.01,5.0,Calm,Calm,-,N/A,,Clear,0,2013-02-25 00:55:00
7:15 PM,19.4,19.4,100,30.01,4.0,Calm,Calm,-,N/A,,Clear,0,2013-02-25 01:15:00
7:40 PM,17.6,17.6,100,30.02,5.0,Calm,Calm,-,N/A,,Clear,0,2013-02-25 01:40:00
7:55 PM,15.8,15.8,100,30.02,2.0,NW,4.6,-,N/A,,Clear,320,2013-02-25 01:55:00
8:20 PM,14.0,14.0,100,30.03,5.0,WNW,3.5,-,N/A,,Clear,300,2013-02-25 02:20:00
8:35 PM,15.8,15.8,100,30.03,4.0,WNW,3.5,-,N/A,,Clear,290,2013-02-25 02:35:00
9:00 PM,17.6,17.6,100,30.04,5.0,SW,3.5,-,N/A,,Clear,220,2013-02-25 03:00:00
9:15 PM,17.6,17.6,100,30.04,3.0,SSW,4.6,-,N/A,,Clear,200,2013-02-25 03:15:00
9:40 PM,15.8,15.8,100,30.05,3.0,South,4.6,-,N/A,,Clear,190,2013-02-25 03:40:00
9:55 PM,15.8,15.8,100,30.05,4.0,South,5.8,-,N/A,,Clear,190,2013-02-25 03:55:00
10:15 PM,14.0,14.0,100,30.05,3.0,SSW,4.6,-,N/A,,Clear,200,2013-02-25 04:15:00
10:40 PM,14.0,14.0,100,30.05,4.0,SSW,4.6,-,N/A,,Clear,200,2013-02-25 04:40:00
10:55 PM,12.2,12.2,100,30.05,2.5,WSW,3.5,-,N/A,,Clear,240,2013-02-25 04:55:00
11:20 PM,14.0,14.0,100,30.04,4.0,West,3.5,-,N/A,,Clear,270,2013-02-25 05:20:00
11:35 PM,12.2,12.2,100,30.04,6.0,West,4.6,-,N/A,,Scattered Clouds,260,2013-02-25 05:35:00